Location: Kelowna
(49.9000°N, 119.4830°W)
Time: 04:51:21
(UTC-07:00)

Envisat - Visible Passes

Search period start: 23 September 2018 00:00
Search period end: 03 October 2018 00:00
Orbit: 764 x 766 km, 98.2° (Epoch: 22 September)

Date Brightness Start Highest point End Pass type
(mag) Time Alt. Az. Time Alt. Az. Time Alt. Az.
23 Sep 3.0 19:40:09 10° SSE 19:45:13 79° ENE 19:50:20 10° NNW visible
23 Sep 5.7 21:21:41 10° SW 21:24:52 16° W 21:28:03 10° NW visible
24 Sep 4.7 20:43:12 10° SSW 20:47:44 32° W 20:52:18 10° NNW visible
25 Sep 3.4 20:05:46 10° S 20:10:48 65° WSW 20:15:53 10° NNW visible
26 Sep 3.0 19:29:03 10° SSE 19:34:04 64° ENE 19:39:07 10° N visible
26 Sep 5.5 21:09:50 10° SW 21:13:33 20° W 21:17:17 10° NW visible
27 Sep 4.3 20:31:43 10° SSW 20:36:29 40° W 20:41:15 10° NNW visible
28 Sep 3.1 19:54:31 10° SSE 19:59:36 80° WSW 20:04:43 10° NNW visible
28 Sep 5.9 21:37:28 10° WSW 21:39:28 12° W 21:41:28 10° WNW visible
29 Sep 3.2 19:18:00 10° SE 19:22:56 53° ENE 19:27:52 10° N visible
29 Sep 5.2 20:58:07 10° SSW 21:02:15 25° W 21:06:24 10° NW visible
30 Sep 3.9 20:20:20 10° S 20:25:14 49° W 20:30:11 10° NNW visible
01 Oct 3.0 19:43:20 10° SSE 19:48:25 85° ENE 19:53:33 10° NNW visible
01 Oct 5.8 21:25:13 10° WSW 21:28:08 15° W 21:31:03 10° NW visible
02 Oct 3.4 19:07:01 10° SE 19:11:48 43° ENE 19:16:36 10° N visible
02 Oct 4.8 20:46:32 10° SSW 20:50:58 30° W 20:55:26 10° NNW visible
